Time,TemperatureF,DewpointF,PressureIn,WindDirection,WindDirectionDegrees,WindSpeedMPH,WindSpeedGustMPH,Humidity,HourlyPrecipIn,Conditions,Clouds,dailyrainin,SoftwareType,DateUTC
2013-07-26 00:02:00,65.0,62.0,29.89,SSW,206,0.0,1.0,90,0.00,,,0.04,,2013-07-26 05:02:00,
2013-07-26 00:12:00,65.0,62.0,29.89,SSW,206,0.0,1.0,91,0.00,,,0.04,,2013-07-26 05:12:00,
2013-07-26 00:22:00,64.0,61.0,29.90,SSW,206,0.0,1.0,91,0.00,,,0.04,,2013-07-26 05:22:00,
2013-07-26 00:32:00,64.0,61.0,29.90,SSW,206,0.0,1.0,91,0.00,,,0.04,,2013-07-26 05:32:00,
2013-07-26 00:43:00,64.0,61.0,29.91,SSW,206,0.0,1.0,91,0.00,,,0.04,,2013-07-26 05:43:00,
2013-07-26 00:52:00,64.0,61.0,29.92,SSW,206,0.0,0.0,91,0.00,,,0.04,,2013-07-26 05:52:00,
2013-07-26 01:02:00,64.0,61.0,29.92,SSW,206,0.0,0.0,91,0.00,,,0.04,,2013-07-26 06:02:00,
2013-07-26 01:12:00,63.0,60.0,29.92,SSW,206,0.0,1.0,91,0.00,,,0.04,,2013-07-26 06:12:00,
2013-07-26 01:22:00,63.0,60.0,29.92,SSW,206,0.0,0.0,91,0.00,,,0.04,,2013-07-26 06:22:00,
2013-07-26 01:33:00,63.0,60.0,29.92,SSW,206,0.0,0.0,91,0.00,,,0.04,,2013-07-26 06:33:00,
2013-07-26 01:43:00,62.0,59.0,29.92,SSW,206,0.0,1.0,91,0.00,,,0.04,,2013-07-26 06:43:00,
2013-07-26 01:52:00,62.0,60.0,29.92,SSW,206,0.0,0.0,92,0.00,,,0.04,,2013-07-26 06:52:00,
2013-07-26 02:02:00,62.0,60.0,29.92,SSW,206,0.0,0.0,92,0.00,,,0.04,,2013-07-26 07:02:00,
2013-07-26 02:12:00,62.0,60.0,29.91,SSW,206,0.0,0.0,92,0.00,,,0.04,,2013-07-26 07:12:00,
2013-07-26 02:22:00,61.0,59.0,29.91,SSW,206,0.0,0.0,92,0.00,,,0.04,,2013-07-26 07:22:00,
2013-07-26 02:32:00,61.0,59.0,29.91,SSW,206,0.0,0.0,92,0.00,,,0.04,,2013-07-26 07:32:00,
2013-07-26 02:43:00,61.0,59.0,29.91,SSW,206,0.0,0.0,92,0.00,,,0.04,,2013-07-26 07:43:00,
2013-07-26 02:52:00,61.0,59.0,29.91,SSW,206,0.0,0.0,92,0.00,,,0.04,,2013-07-26 07:52:00,
2013-07-26 03:02:00,61.0,59.0,29.91,SSW,206,0.0,0.0,92,0.00,,,0.04,,2013-07-26 08:02:00,
2013-07-26 03:12:00,60.0,58.0,29.91,SSW,206,0.0,1.0,93,0.00,,,0.04,,2013-07-26 08:12:00,
2013-07-26 03:22:00,60.0,58.0,29.91,SSW,206,0.0,0.0,93,0.00,,,0.04,,2013-07-26 08:22:00,
2013-07-26 03:32:00,60.0,58.0,29.91,SSW,206,0.0,0.0,93,0.00,,,0.04,,2013-07-26 08:32:00,
2013-07-26 03:44:00,60.0,58.0,29.91,SSW,206,0.0,2.0,92,0.00,,,0.04,,2013-07-26 08:44:00,
2013-07-26 03:52:00,59.0,57.0,29.91,SSW,206,0.0,0.0,93,0.00,,,0.04,,2013-07-26 08:52:00,
2013-07-26 04:02:00,59.0,57.0,29.91,SSW,206,0.0,0.0,93,0.00,,,0.04,,2013-07-26 09:02:00,
2013-07-26 04:12:00,59.0,57.0,29.92,SSW,206,0.0,2.0,93,0.00,,,0.04,,2013-07-26 09:12:00,
2013-07-26 04:22:00,59.0,57.0,29.91,SSW,206,0.0,0.0,93,0.00,,,0.04,,2013-07-26 09:22:00,
2013-07-26 04:32:00,59.0,57.0,29.91,SSW,206,0.0,0.0,93,0.00,,,0.04,,2013-07-26 09:32:00,
2013-07-26 04:43:00,59.0,57.0,29.92,SSW,206,0.0,0.0,93,0.00,,,0.04,,2013-07-26 09:43:00,
2013-07-26 04:52:00,58.0,56.0,29.92,SSW,206,0.0,2.0,93,0.00,,,0.04,,2013-07-26 09:52:00,
2013-07-26 05:02:00,58.0,56.0,29.92,SSW,206,0.0,2.0,93,0.00,,,0.04,,2013-07-26 10:02:00,
2013-07-26 05:12:00,58.0,56.0,29.92,SSW,206,0.0,1.0,93,0.00,,,0.04,,2013-07-26 10:12:00,
2013-07-26 05:22:00,58.0,56.0,29.92,SSW,206,0.0,2.0,93,0.00,,,0.04,,2013-07-26 10:22:00,
2013-07-26 05:33:00,58.0,56.0,29.92,SSW,206,0.0,2.0,93,0.00,,,0.04,,2013-07-26 10:33:00,
2013-07-26 05:42:00,58.0,56.0,29.92,SSW,206,0.0,1.0,93,0.00,,,0.04,,2013-07-26 10:42:00,
2013-07-26 05:52:00,58.0,56.0,29.93,SSW,206,0.0,0.0,93,0.01,,,0.05,,2013-07-26 10:52:00,
2013-07-26 06:02:00,58.0,56.0,29.93,SSW,206,0.0,0.0,93,0.01,,,0.05,,2013-07-26 11:02:00,
2013-07-26 06:12:00,59.0,57.0,29.93,SSW,206,0.0,2.0,94,0.01,,,0.05,,2013-07-26 11:12:00,
2013-07-26 06:22:00,59.0,57.0,29.93,SSW,208,0.0,2.0,93,0.01,,,0.05,,2013-07-26 11:22:00,
2013-07-26 06:32:00,59.0,57.0,29.93,SSW,208,0.0,2.0,93,0.01,,,0.05,,2013-07-26 11:32:00,
2013-07-26 06:43:00,59.0,57.0,29.94,SSW,208,0.0,3.0,94,0.01,,,0.05,,2013-07-26 11:43:00,
2013-07-26 06:52:00,59.0,57.0,29.95,SSW,207,0.0,3.0,94,0.00,,,0.05,,2013-07-26 11:52:00,
2013-07-26 07:02:00,59.0,57.0,29.95,SSW,207,0.0,3.0,94,0.00,,,0.05,,2013-07-26 12:02:00,
2013-07-26 07:12:00,59.0,57.0,29.96,SSW,211,0.0,3.0,94,0.00,,,0.05,,2013-07-26 12:12:00,
2013-07-26 07:22:00,59.0,57.0,29.96,SSW,209,1.0,3.0,94,0.00,,,0.01,,2013-07-26 12:22:00,
2013-07-26 07:33:00,59.0,57.0,29.96,SSW,209,1.0,3.0,94,0.00,,,0.01,,2013-07-26 12:33:00,
2013-07-26 07:43:00,60.0,58.0,29.97,SW,215,0.0,3.0,94,0.00,,,0.01,,2013-07-26 12:43:00,
2013-07-26 07:53:00,60.0,58.0,29.98,SSW,202,0.0,5.0,93,0.00,,,0.01,,2013-07-26 12:53:00,
2013-07-26 08:02:00,60.0,58.0,29.98,SSW,202,0.0,5.0,93,0.00,,,0.01,,2013-07-26 13:02:00,
2013-07-26 08:12:00,60.0,58.0,29.98,South,190,1.0,8.0,92,0.00,,,0.01,,2013-07-26 13:12:00,
2013-07-26 08:22:00,61.0,58.0,29.99,WSW,240,0.0,3.0,91,0.00,,,0.01,,2013-07-26 13:22:00,
2013-07-26 08:32:00,61.0,58.0,29.99,WSW,240,0.0,3.0,91,0.00,,,0.01,,2013-07-26 13:32:00,
2013-07-26 08:43:00,62.0,58.0,30.00,SW,228,1.0,10.0,86,0.00,,,0.01,,2013-07-26 13:43:00,
2013-07-26 08:53:00,62.0,57.0,30.01,NE,36,1.0,5.0,83,0.00,,,0.01,,2013-07-26 13:53:00,
2013-07-26 09:02:00,62.0,57.0,30.01,NE,36,1.0,5.0,83,0.00,,,0.01,,2013-07-26 14:02:00,
2013-07-26 09:12:00,63.0,56.0,30.01,NNW,333,3.0,9.0,78,0.00,,,0.01,,2013-07-26 14:12:00,
2013-07-26 09:22:00,64.0,56.0,30.02,North,350,2.0,10.0,76,0.00,,,0.01,,2013-07-26 14:22:00,
2013-07-26 09:32:00,64.0,56.0,30.02,North,350,2.0,10.0,76,0.00,,,0.01,,2013-07-26 14:32:00,
2013-07-26 09:43:00,64.0,55.0,30.03,NW,318,3.0,8.0,72,0.00,,,0.01,,2013-07-26 14:43:00,
2013-07-26 09:53:00,64.0,56.0,30.04,SSE,160,1.0,9.0,74,0.00,,,0.01,,2013-07-26 14:53:00,
2013-07-26 10:02:00,64.0,56.0,30.04,SSE,160,1.0,9.0,74,0.00,,,0.01,,2013-07-26 15:02:00,
2013-07-26 10:12:00,65.0,55.0,30.06,SSW,208,2.0,7.0,71,0.00,,,0.01,,2013-07-26 15:12:00,
2013-07-26 10:22:00,65.0,54.0,30.06,South,189,2.0,8.0,68,0.00,,,0.01,,2013-07-26 15:22:00,
2013-07-26 10:32:00,65.0,54.0,30.06,South,189,2.0,8.0,68,0.00,,,0.01,,2013-07-26 15:32:00,
2013-07-26 10:43:00,66.0,54.0,30.06,SW,218,3.0,11.0,65,0.00,,,0.01,,2013-07-26 15:43:00,
2013-07-26 10:53:00,66.0,53.0,30.07,NW,323,1.0,9.0,64,0.00,,,0.01,,2013-07-26 15:53:00,
2013-07-26 11:02:00,66.0,53.0,30.07,NW,323,1.0,9.0,64,0.00,,,0.01,,2013-07-26 16:02:00,
2013-07-26 11:14:00,67.0,53.0,30.08,NW,319,5.0,12.0,60,0.00,,,0.01,,2013-07-26 16:14:00,
2013-07-26 11:22:00,67.0,52.0,30.07,NW,315,3.0,10.0,58,0.00,,,0.01,,2013-07-26 16:22:00,
2013-07-26 11:32:00,67.0,52.0,30.07,NW,315,3.0,10.0,58,0.00,,,0.01,,2013-07-26 16:32:00,
2013-07-26 11:43:00,68.0,52.0,30.06,ENE,62,1.0,5.0,56,0.00,,,0.01,,2013-07-26 16:43:00,
2013-07-26 11:54:00,69.0,54.0,30.07,SSW,203,2.0,5.0,58,0.00,,,0.01,,2013-07-26 16:54:00,
2013-07-26 12:02:00,69.0,54.0,30.07,SSW,203,2.0,5.0,58,0.00,,,0.01,,2013-07-26 17:02:00,
2013-07-26 12:12:00,70.0,53.0,30.06,NNE,17,1.0,6.0,54,0.00,,,0.01,,2013-07-26 17:12:00,
2013-07-26 12:22:00,71.0,54.0,30.07,ESE,102,1.0,5.0,54,0.00,,,0.01,,2013-07-26 17:22:00,
2013-07-26 12:33:00,71.0,54.0,30.07,ESE,102,1.0,5.0,54,0.00,,,0.01,,2013-07-26 17:33:00,
2013-07-26 12:43:00,71.0,54.0,30.07,South,175,0.0,4.0,55,0.00,,,0.01,,2013-07-26 17:43:00,
2013-07-26 12:53:00,71.0,54.0,30.05,SSW,207,0.0,7.0,54,0.00,,,0.01,,2013-07-26 17:53:00,
2013-07-26 13:02:00,71.0,54.0,30.05,SSW,207,0.0,7.0,54,0.00,,,0.01,,2013-07-26 18:02:00,
2013-07-26 13:12:00,71.0,54.0,30.04,North,350,0.0,4.0,55,0.00,,,0.01,,2013-07-26 18:12:00,
2013-07-26 13:22:00,71.0,56.0,30.03,SW,216,0.0,5.0,59,0.00,,,0.01,,2013-07-26 18:22:00,
2013-07-26 13:33:00,71.0,56.0,30.03,SW,216,0.0,5.0,59,0.00,,,0.01,,2013-07-26 18:33:00,
2013-07-26 13:43:00,72.0,54.0,30.02,NNW,346,1.0,8.0,53,0.00,,,0.01,,2013-07-26 18:43:00,
2013-07-26 13:52:00,73.0,55.0,30.03,NNW,344,6.0,10.0,53,0.00,,,0.01,,2013-07-26 18:52:00,
2013-07-26 14:02:00,73.0,55.0,30.03,NNW,344,6.0,10.0,53,0.00,,,0.01,,2013-07-26 19:02:00,
2013-07-26 14:12:00,74.0,55.0,30.03,NW,315,4.0,12.0,51,0.00,,,0.01,,2013-07-26 19:12:00,
2013-07-26 14:22:00,73.0,55.0,30.03,NW,323,6.0,11.0,53,0.00,,,0.01,,2013-07-26 19:22:00,
2013-07-26 14:32:00,73.0,55.0,30.03,NW,323,6.0,11.0,53,0.00,,,0.01,,2013-07-26 19:32:00,
2013-07-26 14:43:00,73.0,54.0,30.03,North,355,2.0,12.0,52,0.00,,,0.01,,2013-07-26 19:43:00,
2013-07-26 14:52:00,73.0,53.0,30.02,North,5,4.0,11.0,50,0.00,,,0.01,,2013-07-26 19:52:00,
2013-07-26 15:02:00,73.0,53.0,30.02,North,5,4.0,11.0,50,0.00,,,0.01,,2013-07-26 20:02:00,
2013-07-26 15:12:00,74.0,53.0,30.03,North,355,3.0,7.0,48,0.00,,,0.01,,2013-07-26 20:12:00,
2013-07-26 15:22:00,74.0,54.0,30.02,NNW,344,0.0,8.0,49,0.00,,,0.01,,2013-07-26 20:22:00,
2013-07-26 15:32:00,74.0,54.0,30.02,NNW,344,0.0,8.0,49,0.00,,,0.01,,2013-07-26 20:32:00,
2013-07-26 15:43:00,74.0,54.0,30.02,North,355,2.0,8.0,50,0.00,,,0.01,,2013-07-26 20:43:00,
2013-07-26 16:02:00,75.0,54.0,30.01,North,350,6.0,11.0,48,0.00,,,0.01,,2013-07-26 21:02:00,
2013-07-26 16:12:00,75.0,52.0,30.01,NNW,328,5.0,9.0,45,0.00,,,0.01,,2013-07-26 21:12:00,
2013-07-26 16:32:00,75.0,52.0,30.01,NNW,343,4.0,9.0,44,0.00,,,0.01,,2013-07-26 21:32:00,
2013-07-26 16:43:00,76.0,53.0,30.01,North,355,5.0,8.0,45,0.00,,,0.01,,2013-07-26 21:43:00,
2013-07-26 17:01:00,76.0,55.0,30.01,East,86,1.0,8.0,48,0.00,,,0.01,,2013-07-26 22:01:00,
2013-07-26 17:11:00,76.0,54.0,30.00,NW,315,3.0,10.0,46,0.00,,,0.01,,2013-07-26 22:11:00,
2013-07-26 17:33:00,76.0,52.0,29.99,NNE,21,2.0,8.0,43,0.00,,,0.01,,2013-07-26 22:33:00,
2013-07-26 17:43:00,76.0,53.0,29.99,NW,306,2.0,10.0,45,0.00,,,0.01,,2013-07-26 22:43:00,
2013-07-26 18:02:00,77.0,53.0,29.99,NNE,29,1.0,5.0,43,0.00,,,0.01,,2013-07-26 23:02:00,
2013-07-26 18:12:00,76.0,52.0,29.99,North,9,0.0,7.0,43,0.00,,,0.01,,2013-07-26 23:12:00,
2013-07-26 18:32:00,76.0,53.0,29.98,South,176,0.0,4.0,45,0.00,,,0.01,,2013-07-26 23:32:00,
2013-07-26 18:43:00,75.0,52.0,29.98,NNW,340,0.0,7.0,45,0.00,,,0.01,,2013-07-26 23:43:00,
2013-07-26 18:52:00,75.0,52.0,29.98,NNW,340,0.0,7.0,45,0.00,,,0.01,,2013-07-26 23:52:00,
2013-07-26 19:02:00,76.0,52.0,29.97,NNW,343,1.0,5.0,43,0.00,,,0.01,,2013-07-27 00:02:00,
2013-07-26 19:12:00,76.0,52.0,29.97,NNW,337,2.0,6.0,44,0.00,,,0.01,,2013-07-27 00:12:00,
2013-07-26 19:22:00,76.0,52.0,29.97,NNW,337,2.0,6.0,44,0.00,,,0.01,,2013-07-27 00:22:00,
2013-07-26 19:32:00,76.0,52.0,29.97,NNW,340,1.0,6.0,44,0.00,,,0.01,,2013-07-27 00:32:00,
2013-07-26 19:42:00,76.0,52.0,29.97,NNW,340,1.0,6.0,44,0.00,,,0.01,,2013-07-27 00:42:00,
2013-07-26 19:53:00,75.0,53.0,29.97,NNW,331,0.0,5.0,46,0.00,,,0.01,,2013-07-27 00:53:00,
2013-07-26 20:02:00,75.0,53.0,29.97,NW,315,1.0,4.0,46,0.00,,,0.01,,2013-07-27 01:02:00,
2013-07-26 20:12:00,74.0,52.0,29.97,NNW,340,0.0,4.0,47,0.00,,,0.01,,2013-07-27 01:12:00,
2013-07-26 20:22:00,74.0,52.0,29.97,NNW,340,0.0,4.0,47,0.00,,,0.01,,2013-07-27 01:22:00,
2013-07-26 20:32:00,73.0,53.0,29.96,NNW,341,0.0,3.0,50,0.00,,,0.01,,2013-07-27 01:32:00,
2013-07-26 20:43:00,73.0,53.0,29.96,NNW,341,0.0,3.0,50,0.00,,,0.01,,2013-07-27 01:43:00,
2013-07-26 20:53:00,71.0,53.0,29.97,NNW,339,0.0,1.0,53,0.00,,,0.01,,2013-07-27 01:53:00,
2013-07-26 21:02:00,71.0,53.0,29.97,NNW,339,0.0,1.0,53,0.00,,,0.01,,2013-07-27 02:02:00,
2013-07-26 21:12:00,69.0,53.0,29.97,NNW,338,0.0,3.0,56,0.00,,,0.01,,2013-07-27 02:12:00,
2013-07-26 21:22:00,69.0,53.0,29.97,NNW,338,0.0,3.0,56,0.00,,,0.01,,2013-07-27 02:22:00,
2013-07-26 21:32:00,68.0,53.0,29.98,NNW,338,0.0,3.0,58,0.00,,,0.01,,2013-07-27 02:32:00,
2013-07-26 21:43:00,67.0,53.0,29.97,NNW,338,0.0,2.0,61,0.00,,,0.01,,2013-07-27 02:43:00,
2013-07-26 21:52:00,67.0,53.0,29.97,NNW,338,0.0,2.0,61,0.00,,,0.01,,2013-07-27 02:52:00,
2013-07-26 22:03:00,66.0,53.0,29.97,NNW,339,0.0,2.0,63,0.00,,,0.01,,2013-07-27 03:03:00,
2013-07-26 22:12:00,65.0,53.0,29.97,NNW,339,0.0,2.0,65,0.00,,,0.01,,2013-07-27 03:12:00,
2013-07-26 22:22:00,65.0,53.0,29.97,NNW,339,0.0,2.0,65,0.00,,,0.01,,2013-07-27 03:22:00,
2013-07-26 22:33:00,64.0,53.0,29.97,North,5,0.0,4.0,67,0.00,,,0.01,,2013-07-27 03:33:00,
2013-07-26 22:44:00,63.0,52.0,29.97,NW,325,0.0,4.0,67,0.00,,,0.01,,2013-07-27 03:44:00,
2013-07-26 22:52:00,63.0,52.0,29.97,NW,325,0.0,4.0,67,0.00,,,0.01,,2013-07-27 03:52:00,
2013-07-26 23:02:00,63.0,52.0,29.97,North,355,1.0,3.0,68,0.00,,,0.01,,2013-07-27 04:02:00,
2013-07-26 23:12:00,63.0,51.0,29.97,NE,38,1.0,5.0,66,0.00,,,0.01,,2013-07-27 04:12:00,
2013-07-26 23:22:00,63.0,51.0,29.97,NE,38,1.0,5.0,66,0.00,,,0.01,,2013-07-27 04:22:00,
2013-07-26 23:32:00,62.0,51.0,29.98,NNE,24,0.0,3.0,68,0.00,,,0.01,,2013-07-27 04:32:00,
2013-07-26 23:43:00,61.0,52.0,29.98,NNW,329,0.0,2.0,71,0.00,,,0.01,,2013-07-27 04:43:00,
2013-07-26 23:53:00,61.0,52.0,29.98,NNW,329,0.0,2.0,71,0.00,,,0.01,,2013-07-27 04:53:00,